Torna al catalogo

CZ-6A DEB

AttivoPO
NORAD 54266·DEBRIS·🇨🇳 China

Lanciato Nov 11, 2022 da Taiyuan Satellite Launch Center

Loading…

Prossimi Passaggi (prossime 24 ore)

TLE

AggiornatoSource: Space-Track

Epoca: Sep 14, 2026, 21:21 UTC

1 54266U 22151H   26257.88994573 -.00000362  00000-0 -41298-3 0  9999
2 54266  98.9830 117.2068 0409191 199.4604 159.0502 13.33368320186867

Traccia CZ-6A DEB in tempo reale con AllMySat

Download on the App Store